Regional Weather Roundup
Issued by NWS

Home | Current Version | Previous Version | Text Only | Print | Product List | Glossary Off
Versions: 1 2 3 4 5 6 7 8 9 10 11 12 13 14 15 16 17 18 19 20 21 22 23 24 25 26 27 28 29 30 31 32 33 34 35 36 37 38 39 40 41 42 43 44 45 46 47 48 49 50

204
ASUS43 KLSX 191657
RWRMO

WEATHER SUMMARY FOR MISSOURI
NATIONAL WEATHER SERVICE SPRINGFIELD MO
1100 AM CST SUN NOV 19 2017

NOTE: "FAIR" INDICATES FEW OR NO CLOUDS BELOW 12,000 FEET WITH NO
       SIGNIFICANT WEATHER AND/OR OBSTRUCTIONS TO VISIBILITY.
       CURRENT SKY AND/OR WEATHER CONDITIONS ARE NOT AVAILABLE FOR
       CHILLICOTHE AND FARMINGTON.

MOZ001>031-035>038-043-044-053-054-191800-
...NORTHERN AND WESTERN MISSOURI...

CITY           SKY/WX    TMP DP  RH WIND       PRES   REMARKS
KANSAS CTY INT SUNNY     42  22  44 VRB6      30.27F
LEE`S SUMMIT   SUNNY     41  21  44 SW5       30.29F
ST JOSEPH      SUNNY     41  22  46 S7        30.27F
CHILLICOTHE      N/A     41  21  44 CALM      30.28S

$$
MOZ066>068-077>081-088>096-101>105-191800-
...SOUTHWEST MISSOURI...

CITY           SKY/WX    TMP DP  RH WIND       PRES   REMARKS
SPRINGFIELD    SUNNY     43  25  49 N7        30.29S
JOPLIN         SUNNY     45  27  49 N6        30.33S
BRANSON        SUNNY     45  23  42 NW13G21   30.31S

$$
MOZ032>034-039>042-045>050-055>058-069>072-191800-
...CENTRAL MISSOURI...

CITY           SKY/WX    TMP DP  RH WIND       PRES   REMARKS
COLUMBIA       NOT AVBL
JEFFERSON CITY SUNNY     37  19  48 NW13      30.30S WCI  29
ROLLA          SUNNY     37  20  50 NW13      30.26S WCI  29
SEDALIA        SUNNY     40  22  48 VRB5      30.30F
WARRENSBURG    SUNNY     39  21  48 CALM      30.30F

$$
MOZ051-052-059>065-191800-
...EAST CENTRAL MISSOURI...

CITY           SKY/WX    TMP DP  RH WIND       PRES   REMARKS
ST LOUIS INTL  MOSUNNY   38  18  44 NW14      30.25R WCI  30

$$
MOZ072>076-082>087-097>100-106>115-191800-
...SOUTH CENTRAL AND SOUTHEAST MISSOURI...

CITY           SKY/WX    TMP DP  RH WIND       PRES   REMARKS
CAPE GIRARDEAU SUNNY     41  23  48 N12G22    30.24S
POPLAR BLUFF   SUNNY     44  19  36 N12       30.26R
WEST PLAINS    SUNNY     45  19  35 N14G22    30.27S

$$



USA.gov is the U.S. government's official web portal to all federal, state and local government web resources and services.